Location: Taaricht
(32.5378°N, 5.4251°W)
Time: 17:00:09
(UTC+00:00)

CZ-4C R/B - Pass Details

Date: 09 April 2020
Orbit: 637 x 1365 km, 63.4° (Epoch: 26 May)

Event Time Altitude Azimuth Distance (km) Brightness Sun altitude
Rises 22:40:14 0° 335° (NNW) 3,944 6.5 -42.6°
Reaches altitude 10° 22:42:54 10° 341° (NNW) 3,078 5.7 -42.9°
Enters shadow 22:46:58 33° 1° (N) 1,949 4.2 -43.4°
